+ View the NASA Portal
+ Center for Near-Earth Object Studies
IMPORTANT:
The SSD Announcement email list is now available. Major changes are coming in the near future, including possible hostname and/or URL changes. To be notified of such changes, subscribe to this email list.
Please visit
this page
for more details.
Don't show this message again
JPL Small-Body Database Browser
Search:
[
help
]
27228 (1999 JG11)
Classification:
Main-belt Asteroid
SPK-ID:
2027228
[
Ephemeris
|
Orbit Diagram
|
Orbital Elements
|
Mission Design
|
Physical Parameters
|
Discovery Circumstances
|
Close-Approach Data
]
[ show orbit diagram ]
Orbital Elements at Epoch 2458600.5 (2019-Apr-27.0) TDB
Reference:
JPL 17
(heliocentric ecliptic J2000)
Element
Value
Uncertainty (1-sigma)
Units
e
.1600606455780744
3.5806e-08
a
2.755953121120645
1.3442e-08
au
q
2.314833485371165
9.751e-08
au
i
11.32598961867812
5.4303e-06
deg
node
218.1667732656734
2.1219e-05
deg
peri
68.90285511922289
2.7428e-05
deg
M
94.07905228148017
1.7718e-05
deg
t
p
2458163.786518626913
(2018-Feb-14.28651863)
8.1652e-05
TDB
period
1671.114339289109
4.58
1.2227e-05
3.348e-08
d
yr
n
.215425115766252
1.5761e-09
deg/d
Q
3.197072756870124
1.5594e-08
au
Orbit Determination Parameters
# obs. used (total)
1129
data-arc span
9062 days (24.81 yr)
first obs. used
1994-04-15
last obs. used
2019-02-05
planetary ephem.
DE431
SB-pert. ephem.
SB431-N16
condition code
0
norm. resid. RMS
.55533
source
ORB
producer
Otto Matic
solution date
2019-Jul-13 01:02:25
Additional Information
Earth MOID
= 1.3271 au
Jupiter MOID
= 2.01184 au
T_jup
= 3.297
[ show covariance matrix ]
[
Ephemeris
|
Orbit Diagram
|
Orbital Elements
|
Mission Design
|
Physical Parameters
|
Discovery Circumstances
|
Close-Approach Data
]
Physical Parameter Table
Parameter
Symbol
Value
Units
Sigma
Reference
Notes
absolute magnitude
H
14.5
n/a
MPO459047
27228 (1999 JG11)
Discovered 1999-May-09 by Korlevic, K. at Visnjan
Reference:
20010804/Numbers.arc
Last Updated:
2004-04-19
[ show close-approach data ]
[
Ephemeris
|
Orbit Diagram
|
Orbital Elements
|
Mission Design
|
Physical Parameters
|
Discovery Circumstances
|
Close-Approach Data
]
2019-Dec-11 20:15 UT
(server date/time)
Site Manager:
Ryan S. Park
Webmaster
:
Alan B. Chamberlin